Location: Drocourt
(49.0571°N, 1.7669°E)
Time: 16:01:42
(UTC+00:00)

Vanguard 3 - Pass Details

Date: 21 April 2024
Orbit: 509 x 3233 km, 33.3° (Epoch: 23 May)

Event Time Altitude Azimuth Distance (km) Brightness Sun altitude
Rises 08:32:33 0° 260° (W) 4,488 10.5 34.9°
Maximum altitude 08:40:07 10° 216° (SW) 2,635 9.8 36.0°
Drops below altitude 10° 08:40:21 10° 213° (SSW) 2,612 9.8 36.0°
Sets 08:45:37 0° 165° (SSE) 2,997 10.6 36.8°
